Regional Weather Roundup
Issued by NWS

Home | Current Version | Previous Version | Text Only | Print | Product List | Glossary Off
Versions: 1 2 3 4 5 6 7 8 9 10 11 12 13 14 15 16 17 18 19 20 21 22 23 24 25 26 27 28

000
ASUS45 KSLC 211810
RWRUT

UTAH REGIONAL WEATHER ROUNDUP
NATIONAL WEATHER SERVICE SALT LAKE CITY UT
1200 PM MDT WED JUN 21 2017

UTZ001>011-023>025-211900-

NORTHERN UTAH

CITY           SKY/WX    TMP DP  RH WIND       PRES   REMARKS
BRIGHAM CITY   SUNNY     84  48  28 CALM      30.02F
DUGWAY         SUNNY     91  37  14 W7        30.00
HILL AFB       MOSUNNY   83  52  33 E6        30.05F
LOGAN          SUNNY     84  51  31 VRB3      30.04S
OGDEN          MOSUNNY   88  46  23 VRB5      30.02F
SALT LAKE CITY MOSUNNY   92  45  19 N7        29.99F
TOOELE VALLEY  MOSUNNY   88  54  31 N7        30.01S
WENDOVER         N/A     90  48  23 SE8       30.01F
HEBER CITY     SUNNY     79  45  29 CALM      30.12F
WEST JORDAN    SUNNY     89  56  33 SE6       30.04S

$$

UTZ011>015-024>027-211900-

CENTRAL/NORTHEAST UTAH

CITY           SKY/WX    TMP DP  RH WIND       PRES   REMARKS
PROVO AIRPORT  SUNNY     79  55  43 W6        30.04F
MOAB/CANYONLAN SUNNY     96  37  12 SE8       30.00F HX  91
DELTA          SUNNY     90  37  15 S7        30.04F
PRICE          SUNNY     88  34  14 VRB5      30.14F
ROOSEVELT      SUNNY     86  41  20 E6        30.11F
VERNAL         SUNNY     85  45  24 VRB3      30.10F

$$

UTZ013>016-019>022-027-211900-

SOUTHERN UTAH

CITY           SKY/WX    TMP DP  RH WIND       PRES   REMARKS
BRYCE CANYON   MOSUNNY   86  27  11 W8        30.31S
CEDAR CITY     MOSUNNY   96  26   8 W8        30.09F HX  90
MILFORD        SUNNY     95  34  11 S8        30.03F HX  90
ST GEORGE      CLEAR     97  35  11 NW6       29.88F HX  92
HANKSVILLE     SUNNY     95  36  12 E3        30.02F HX  90
BLANDING       SUNNY     92  33  12 S8        30.20F

$$

REGIONAL REPORTS     COLORADO/ARIZONA

CITY           SKY/WX    TMP DP  RH WIND       PRES   REMARKS
CRAIG, CO      SUNNY     86  37  17 S6        30.17F
GRAND JUNCTION SUNNY     92  41  17 SW5       30.05F
RIFLE, CO      SUNNY     89  37  16 SW6       30.12F
MONTROSE, CO   SUNNY     91  36  14 E3        30.13F
CORTEZ, CO     SUNNY     92  35  13 S7        30.15F
COLORADO CITY    N/A    100  32   9 E6        30.07F HX  94
PAGE, AZ       SUNNY     96  33  11 VRB5      30.00F HX  91
GRAND CANYON   SUNNY     91  20   7 NW3       30.23S
KINGMAN, AZ    SUNNY    106  31   7 W14       29.93S HX  99
FLAGSTAFF, AZ  PTSUNNY   88  23   9 S12       30.26S

$$

REGIONAL REPORTS    NEVADA/IDAHO/WYOMING

CITY           SKY/WX    TMP DP  RH WIND       PRES   REMARKS
LAS VEGAS, NV  SUNNY    105  11   3 S14       29.80S HX  96
ELY, NY        SUNNY     89  33  13 VRB5      30.13F
ELKO, NV       SUNNY     87  44  22 CALM      30.07F
POCATELLO, ID  SUNNY     81  52  36 W20       30.07S
BURLEY, ID     SUNNY     77  49  37 W18G25    30.06S
FORT BRIDGER,    N/A     85  37  18 W7G17     30.24S
EVANSTON, WY   CLOUDY    79  43  27 SW14      30.23S
ROCK SPRINGS,  SUNNY     83  36  18 W10       30.18F
KEMMERER, WY     N/A     79  41  25 W13G21    30.24F

$$




USA.gov is the U.S. government's official web portal to all federal, state and local government web resources and services.